Home   Weather   Varel   Past weeks

Flag for Germany Past Weather in Varel, Lower Saxony, Germany — Yesterday and Last 2 Weeks

Now
48 °F

Broken clouds.


Feels Like: 43 °F
Forecast: 37 / 50 °F
Wind: 12 mph from Southwest

Location: Wittmundhaven

Current Time: Apr 27, 2017 at 5:24:51 pm

Latest Report: Apr 27, 2017 at 4:20 pm


Visibility: N/A

Pressure: 29.92 "Hg

Humidity: 62%

Dew Point: 36 °F

Location of VarelLocation

Past Weather in Varel — Graph

°F

Varel Temperature Yesterday

Maximum temperature yesterday: 48 °F (at 12:20 pm)
Minimum temperature yesterday: 32 °F (at 5:20 am)
Average temperature yesterday: 41 °F

High & Low Weather Summary for the Past Weeks

 TemperatureHumidityPressure
High55 °F (Apr 21, 1:20 pm)100% (Apr 13, 3:20 am)30.63 "Hg (Apr 13, 3:20 am)
Low27 °F (Apr 20, 6:20 am)42% (Apr 19, 6:20 pm)29.59 "Hg (Apr 25, 4:34 am)
Average43 °F77%30.07 "Hg
* Reported Apr 12 3:20 pm — Apr 27 3:20 pm, Varel, Weather by CustomWeather, © 2017

Note: Actual official high and low records may vary slightly from our data, if they occured in-between our weather recording intervals... More about our weather records

Advertising

Varel Weather History for the Previous 24 Hours

Scroll right to see more
 ConditionsComfort  
Time TempWeatherWind HumidityBarometerVisibility
3:20 pm
Thu, Apr 27
45 °FBroken clouds.9 mph76%29.95 "HgN/A
2:20 pm45 °FSprinkles. Broken clouds.10 mph71%29.95 "HgN/A
2:07 pm48 °FSprinkles. Broken clouds.12 mph66%29.95 "HgN/A
1:20 pm46 °FBroken clouds.14 mph53%29.95 "HgN/A
12:20 pm46 °FSprinkles. Partly sunny.13 mph62%29.95 "HgN/A
11:20 am41 °FSprinkles. Partly sunny.20 mph81%29.98 "HgN/A
10:47 am45 °FSprinkles. Broken clouds.10 mph61%29.95 "HgN/A
10:20 am45 °FBroken clouds.9 mph66%29.95 "HgN/A
9:20 am45 °FBroken clouds.7 mph71%29.95 "HgN/A
8:20 am41 °FScattered clouds.5 mph76%29.95 "HgN/A
7:20 am36 °FPassing clouds.1 mph93%29.95 "HgN/A
6:20 am34 °FFog.3 mph93%29.95 "HgN/A
5:20 am36 °FPassing clouds.6 mph93%29.95 "HgN/A
4:20 am34 °FPassing clouds.5 mph93%29.95 "HgN/A
3:20 am34 °FPassing clouds.3 mph93%29.95 "HgN/A
2:20 am34 °FPassing clouds.5 mph93%29.95 "HgN/A
1:20 am36 °FPassing clouds.5 mph87%29.95 "HgN/A
12:20 am36 °FPassing clouds.3 mph93%29.95 "HgN/A
11:20 pm
Wed, Apr 26
37 °FPassing clouds.5 mph87%29.95 "HgN/A
10:41 pm37 °FPassing clouds.3 mph87%29.95 "HgN/A
9:20 pm41 °FPassing clouds.3 mph81%29.95 "HgN/A
8:20 pm45 °FPassing clouds.7 mph66%29.92 "HgN/A
7:20 pm46 °FPassing clouds.10 mph57%29.92 "HgN/A
6:20 pm46 °FPassing clouds.10 mph53%29.92 "HgN/A
5:20 pm46 °FScattered clouds.9 mph57%29.92 "HgN/A
Weather by CustomWeather, © 2017

See weather overviewHow to use our weather pages